• Processing (Info)

  • MPEC 2004-W24 : 2004 WH1

    The following Minor Planet Electronic Circular may be linked-to from your own Web pages, but must not otherwise be redistributed electronically.

    A form allowing access to any MPEC is at the bottom of this page.


    Read MPEC 2004-W23 Read MPEC 2004-W25


    M.P.E.C. 2004-W24                                Issued 2004 Nov. 21, 00:39 UT
    
         The Minor Planet Electronic Circulars contain information on unusual
             minor planets and routine data on comets.  They are published
       on behalf of Commission 20 of the International Astronomical Union by the
              Minor Planet Center, Smithsonian Astrophysical Observatory,
                              Cambridge, MA 02138, U.S.A.
    
                      Supported in part by the Brinson Foundation
                 Prepared using the Tamkin Foundation Computer Network
    
                                  MPC@CFA.HARVARD.EDU
              URL http://cfa-www.harvard.edu/iau/mpc.html  ISSN 1523-6714
    
                                       2004 WH1
    
    Observations:
         K04W01H  C2004 11 18.37345 09 08 57.06 +18 31 51.8          18.3   EW024704
         K04W01H  C2004 11 18.38585 09 09 10.54 +18 29 28.8          19.1   EW024704
         K04W01H  C2004 11 18.39826 09 09 23.91 +18 27 05.6          19.3   EW024704
         K04W01H  C2004 11 18.41064 09 09 37.15 +18 24 42.0          19.0   EW024704
         K04W01H  C2004 11 18.42307 09 09 50.33 +18 22 17.2          19.4   EW024704
         K04W01H* C2004 11 19.38535 09 27 45.42 +15 11 16.3          18.7 R EW024699
         K04W01H  C2004 11 19.39591 09 27 55.69 +15 09 16.0                 EW024699
         K04W01H  C2004 11 19.40646 09 28 06.13 +15 07 17.4                 EW024699
         K04W01H  C2004 11 19.41704 09 28 16.67 +15 05 15.0                 EW024699
         K04W01H  C2004 11 19.54560 09 30 19.88 +14 40 38.5          18.4 R EW024693
         K04W01H  C2004 11 19.54598 09 30 20.25 +14 40 34.0          18.9 R EW024693
         K04W01H  C2004 11 19.54637 09 30 20.59 +14 40 29.6          19.0 R EW024693
         K04W01H  C2004 11 19.54675 09 30 20.96 +14 40 25.3          18.8 R EW024693
         K04W01H  C2004 11 20.36363 09 44 27.82 +12 02 47.3          18.9 R EW024854
         K04W01H  C2004 11 20.36977 09 44 33.50 +12 01 39.0          18.9 R EW024854
         K04W01H  C2004 11 20.37594 09 44 39.23 +12 00 29.8          19.0 R EW024854
    
    Observer details:
    693 Catalina Station, Tucson.  Observer C. W. Hergenrother.  1.54-m reflector
        + CCD.
    699 Lowell Observatory-LONEOS.  Observer M. E. Van Ness.  0.59-m LONEOS
        Schmidt + CCD.
    704 Lincoln Laboratory ETS, New Mexico.  Observers M. Blythe, F. Shelly,
        M. Bezpalko, R. Huber, L. Manguso, D. Torres, R. Kracke, M. McCleary,
        H. Stange, A. Milner.  Measurers J. Stuart, R. Sayer, J. Evans, J. Kommers.
        1.0-m f/2.15 reflector + CCD.
    854 Sabino Canyon Observatory, Tucson.  Observer J. E. McGaha.  0.36-m f/10.0
        Schmidt-Cassegrain + CCD.
    
    Orbital elements:
    2004 WH1
    Epoch 2005 Jan. 30.0 TT = JDT 2453400.5                 MPC
    M  27.75087              (2000.0)            P               Q
    n   0.75257353     Peri.  219.13843     -0.14118441     -0.98919293
    a   1.1970256      Node   239.01131     +0.91948257     -0.11621875
    e   0.2024749      Incl.    2.64435     +0.36690429     -0.08938982
    P   1.31           H   24.0           G   0.15           U   8
    Residuals in seconds of arc
    041118 704  0.4-  0.3-    041119 699  1.0-  0.9-    041119 693  0.2+  0.5+
    041118 704  0.1+  0.2-    041119 699  2.0-  1.2+    041120 854  0.3+  0.8+
    041118 704  0.2+  0.2+    041119 699  1.0-  0.1+    041120 854  0.4-  0.2+
    041118 704  0.2+  0.2+    041119 693  0.2+  0.2+    041120 854  0.3-  1.0-
    041118 704  0.2-  0.1+    041119 693  0.4+  0.1+
    041119 699 (3.6+  1.3-)   041119 693  0.0   0.3+
    
    Ephemeris:
    2004 WH1                 a,e,i = 1.20, 0.20, 3                   q = 0.9547
    Date    TT    R. A. (2000) Decl.     Delta      r     Elong.  Phase     V
    2004 11 21    09 54.27   +10 07.1    0.030    0.989    91.7    86.6    19.4
    2004 11 23    10 22.26   +04 27.1    0.032    0.985    85.3    92.9    19.8
    2004 11 25    10 45.33   -00 20.2    0.035    0.982    80.2    97.8    20.2
    2004 11 27    11 04.46   -04 17.2    0.039    0.978    76.3   101.5    20.6
    2004 11 29    11 20.47   -07 31.5    0.043    0.975    73.4   104.1    21.0
    2004 12 01    11 34.08   -10 11.4    0.047    0.972    71.3   106.0    21.3
    2004 12 03    11 45.80   -12 24.0    0.052    0.969    69.9   107.2    21.5
    2004 12 05    11 56.05   -14 15.3    0.056    0.967    68.9   108.0    21.7
    2004 12 07    12 05.13   -15 49.8    0.061    0.964    68.3   108.4    21.9
    2004 12 09    12 13.29   -17 11.0    0.066    0.962    67.9   108.4    22.1
    2004 12 11    12 20.71   -18 21.5    0.071    0.960    67.9   108.2    22.2
    
    Kyle E. Smalley              (C) Copyright 2004 MPC           M.P.E.C. 2004-W24
    

    Read MPEC 2004-W23 Read MPEC 2004-W25


    MPEC number:

    Enter an MPEC number in one of the following forms:

    • 1997-B01 (the full form)
    • J97B01 (the packed version of the full form)
    • B01 (the abbreviated form)